Torna al catalogo

STARLINK-31631

AttivoComunicazioniVLEO
NORAD 59459·PAYLOAD·🇺🇸 United States

Lanciato Apr 10, 2024 da Cape Canaveral Space Force Station

Loading…

Prossimi Passaggi (prossime 24 ore)

TLE

AggiornatoSource: CelesTrak SupGP

Epoca: Sep 15, 2026, 02:00 UTC

1 59459C 24068E   26258.08381944 -.00028950  00000+0 -10485-2 0  2585
2 59459  43.0021  41.1749 0001506 269.5540  11.1045 15.27595640    10

Traccia STARLINK-31631 in tempo reale con AllMySat

Download on the App Store